Regional Weather Roundup
Issued by NWS Pendleton, OR

Home | Current Version | Previous Version | Text Only | Print | Product List | Glossary On
Versions: 1 2 3 4 5 6 7 8 9 10 11 12 13 14 15 16 17 18 19 20 21 22 23 24 25 26 27 28 29 30 31 32 33 34 35 36 37 38 39 40 41 42 43 44 45 46 47 48 49 50
000
ASUS46 KPDT 231010
RWRPDT
PENDLETON REGIONAL WEATHER ROUNDUP
NATIONAL WEATHER SERVICE PENDLETON OREGON
200 AM PST THU FEB 23 2017

NOTE: FAIR INDICATES FEW OR NO CLOUDS BELOW 12,000 FEET WITH NO
SIGNIFICANT WEATHER AND/OR OBSTRUCTIONS TO VISIBILITY.

# INDICATES UNOFFICIAL STATION AND DATA

WAZ520-231110-
EAST SLOPES OF WASHINGTON CASCADES

CITY            SKY/WX      TMP DP  RH  WIND    PRES   REMARKS
#CLE ELUM HS    N/A         24  18  77  CALM    30.06S
#CLE ELUM LAKE  N/A         22  18  84  CALM    30.15S
#GLENWOOD       N/A         19  17  92  CALM    30.18R
#MANASTASH CYN  N/A         22  14  71  CALM    30.02F
#NELSON 3SW     N/A         20  18  92  CALM    30.39S
#NILE           N/A         19  17  92  CALM    29.43S
#TEANAWAY 4NE   N/A         21  18  88  CALM    N/A
#TROUT LAKE 1NE N/A         24  21  88  CALM    30.16S
#TROUT LAKE 1E  N/A         24  22  92  CALM    30.11F
$$

WAZ521-231110-
SIMCOE HIGHLANDS

CITY            SKY/WX      TMP DP  RH  WIND    PRES   REMARKS
#BICKLETON HS   N/A         28  18  66  N10     29.65F
#CENTERVILLE 1SWN/A         27  23  85  CALM    30.13S
#GOLDENDALE 1NE N/A         23  18  81  CALM    N/A
#GOLDENDALE 4W  N/A         23  12  62  CALM    30.12S
#GOODNOE HILLS  N/A         32  24  72  W9      30.00S
#LYLE 6NE       N/A         30  27  88  CALM    30.14S
#PITT 4SE       N/A         25  24  96  SW1     30.20R
$$

WAZ026-231110-
KITTITAS VALLEY

CITY            SKY/WX      TMP DP  RH  WIND    PRES   REMARKS
ELLENSBURG AP   CLEAR       30  20  66  N14     30.09S WCI 19
#ELLENSBURG CWU N/A         29  23  78  NW7     30.09S
#ELLENSBURG 3NE N/A         28  22  78  N7      28.17R
#KITTITAS 4N    N/A         22  16  77  E3      30.09F
#KITTITAS 3S    N/A         19  17  92  CALM    30.16R
#THORP 6N       N/A         25  21  84  NW13    30.17S WCI 13
$$

WAZ027-231110-
YAKIMA VALLEY

CITY            SKY/WX      TMP DP  RH  WIND    PRES   REMARKS
SUNNYSIDE AP    PTCLDY      24  23  96  CALM    30.12S
YAKIMA AIRPORT  CLEAR       24  18  77  W7      30.12S
YAKIMA-VAGABOND CLEAR       28  20  71  E9      30.09R
#DONALD 2NE     N/A         31   8  37  SW6     28.95S
#GRANDVIEW      N/A         25  21  84  CALM    30.16F
#MABTON         N/A         31  26  81  W1      30.12
#MOXEE 2E       N/A         26   0  32  CALM    30.10S
#NACHES 2SW     N/A         30  22  72  W9      30.07S
#TERRACE HTS    N/A         28  21  75  CALM    30.11S
#TOPPENISH      N/A         30  23  75  CALM    30.08R
#WEST VALLEY    N/A         28  22  78  CALM    30.14S
#W YAKIMA       N/A         31  22  69  CALM    30.15R
#WHITE SWAN 5E  N/A         23  21  92  CALM    30.16S
#WILEY CITY 3W  N/A         25  14  62  CALM    30.07S
$$

WAZ028-231110-
LOWER COLUMBIA BASIN...WASHINGTON

CITY            SKY/WX      TMP DP  RH  WIND    PRES   REMARKS
HANFORD         MOCLEAR     32  24  72  W9      30.10S
PASCO           MOCLDY      28  26  92  CALM    30.14S
PROSSER AWOS    N/A         28  28  100 CALM    30.16S
RICHLAND AWOS   MOCLDY      30  30  100 CALM    30.14S
#BENTON CITY    N/A         31  27  85  W1      30.06S
#CONNELL 5N     N/A         25  24  96  CALM    30.14S
#CONNELL 5NW    N/A         25  24  96  CALM    30.10S
#ELTOPIA 6NW    N/A         31  29  92  CALM    29.07S
#KAHLOTUS       N/A         28  27  96  CALM    30.12S
#KENNEWICK 3S   N/A         32  27  82  CALM    30.14S
#PATERSON       N/A         32  29  89  CALM    30.13S
#SAGEMOOR 2W    N/A         31  27  85  NW1     29.99R
#TOUCHET 2S     N/A         29  27  92  CALM    30.12S
#WEST PASCO     N/A         28  24  85  CALM    30.13S
$$

WAZ029-231110-
FOOTHILLS OF THE BLUES...WASHINGTON

CITY            SKY/WX      TMP DP  RH  WIND    PRES   REMARKS
WALLA WALLA AP  PTCLDY      31  28  88  S8      30.08S
#CLYDE 6NW      N/A         23  21  92  CALM    30.12S
#DAYTON SCHOOL  N/A         26  19  74  CALM    30.09S
#LOWDEN 2SE     N/A         28  27  96  CALM    30.09S
#PLEASANT VIEW 1N/A         30  27  88  CALM    30.16S
#PRESCOTT       N/A         26  25  96  CALM    30.11F
#WHITMAN COLLEGEN/A         32  29  89  CALM    30.17S
#WAITSBURG 5S   N/A         31  28  88  CALM    30.21F
#WALLA WALLA 5E N/A         31  28  88  S2      N/A
#WHITMAN MISSIONN/A         31  29  92  CALM    30.14S
$$

WAZ030-231110-
BLUE MOUNTAINS...WASHINGTON

CITY            SKY/WX      TMP DP  RH  WIND    PRES   REMARKS
#DIXIE 5SE      N/A         29  25  85  SW2     29.93S
#SKI BLUEWOOD   N/A         20  17  88  S1      29.91F
$$

ORZ009-041-WAZ024-231110-
COLUMBIA RIVER GORGE

CITY            SKY/WX      TMP DP  RH  WIND    PRES   REMARKS
HOOD RIVER AP   PTCLDY      30  27  88  CALM    30.17S
THE DALLES AP   CLEAR       37  31  79  NW10    30.16S
#ARLINGTON AIRPON/A         35  29  78  W5      30.16S
#ARLINGTON HS   N/A         37  28  70  CALM    30.05S
#CELILO DOT     N/A         39  25  57  SW8     N/A
#LYLE           N/A         37  32  82  NW2     30.19S
#MOSIER 1S      N/A         32  22  66  CALM    30.12S
#MURDOCK        N/A         39  32  76  NW14G24 30.16S WCI 31
#RUFUS DOT      N/A         40  28  62  W8      N/A
#SMITHVILLE     N/A         38  32  79  N12     30.10S WCI 30

$$

ORZ510-231110-
NORTH CENTRAL OREGON

CITY            SKY/WX      TMP DP  RH  WIND    PRES   REMARKS
#CHENOWITH 1W   N/A         30  27  88  W21     N/A    WCI 17
#COW CYN RST AREN/A         28  20  71  W5      N/A
#DUFUR 9E       N/A         30  24  78  W3      30.21R
#GRASS VALLEY 1SN/A         30  24  78  CALM    30.21R
#KENT DOT       N/A         26  17  68  N5      N/A
#MAUPIN SCHOOL  N/A         30  23  75  CALM    30.17S
#MORO SCHOOL    N/A         31  28  88  NW7     30.15R
#SHANIKO 5WSW   N/A         26  16  65  N3      N/A
#SHANIKO 4NW    N/A         25  20  81  W5      30.01S
#TYGH VALLEY 2NEN/A         28  23  81  CALM    30.16R
#WAPANITIA AIRPON/A         29  24  81  CALM    30.17S
#WASCO DOT      N/A         30  27  88  SW3     N/A
#WASCO AIRPORT  N/A         31  26  81  W7      N/A
#WASCO 5NE      N/A         30  27  88  W6      30.15S
$$

ORZ511-231110-
CENTRAL OREGON

CITY            SKY/WX      TMP DP  RH  WIND    PRES   REMARKS
BEND AIRPORT    PTCLDY      23  19  84  CALM    30.05S
MADRAS AIRPORT  PTCLDY      25  23  92  CALM    30.10S
PRINEVILLE AP   CLOUDY      28  23  81  NW7     30.05S
REDMOND AIRPORT CLOUDY      27  21  78  NW5     30.06R
#ASHWOOD SCHOOL N/A         26  23  88  CALM    30.04S
#BEND 1SW       N/A         22  19  88  CALM    N/A
#BEND-AWBREY    N/A         25  21  84  N1      30.17S
#BEND-KIM LN    N/A         20  17  88  CALM    30.13R
#CULVER         N/A         24  20  84  CALM    30.11R
#CULVER 8W      N/A         25  19  78  CALM    30.06S
#LAKE BILLY CHINN/A         27  N/A N/A CALM    30.20R
#POWELL BUTTE 3EN/A         25  23  92  SW1     N/A
#POWELL BUTTE   N/A         26  19  74  CALM    29.99S
#WARM SPRINGS   N/A         26  23  88  CALM    30.08S

$$


ORZ509-231110-
EAST SLOPES OF OREGON CASCADES

CITY            SKY/WX      TMP DP  RH  WIND    PRES   REMARKS
SISTERS AWOS    N/A         27  19  71  W10     30.01S
#BLUE BOX PASS  N/A         24  N/A N/A NW5     N/A
#CAMP SHERMAN   N/A         20  17  88  CALM    30.24R
#LA PINE 4NW    N/A         19  16  88  CALM    30.22S
#LAVA BUTTE DOT N/A         17  14  88  CALM    N/A
#SISTERS ODOT   N/A         28  N/A N/A S1      N/A
#SISTERS 1NW    N/A         27  20  74  NW3     N/A
#SISTERS 3N     N/A         26  16  65  CALM    30.05R
#SUNRIVER       N/A         16  14  92  CALM    30.19S
#TUMALO 3W      N/A         22  17  81  NW2     30.05S
#WANOGA BUTTE D N/A         16  11  80  NW6     N/A

$$

ORZ044-231110-
LOWER COLUMBIA BASIN...OREGON

CITY            SKY/WX      TMP DP  RH  WIND    PRES   REMARKS
HERMISTON       MOCLDY      29  27  92  W6      30.11S
#BOARDMAN SCHOOLN/A         31  27  85  CALM    30.14S
#BOARDMAN 8SW   N/A         33  30  89  W3      30.14S
#ECHO 8SW       N/A         34  31  89  W2      30.12S
#I-84 EX 198 DOTN/A         32  27  82  N3      N/A
#IONE SCHOOL    N/A         34  17  49  S1      30.16S
#UMATILLA       N/A         30  25  81  CALM    30.08S
$$

ORZ507-231110-
NORTHERN FOOTHILLS OF THE BLUES

CITY            SKY/WX      TMP DP  RH  WIND    PRES   REMARKS
PENDLETON AIRPT PTCLDY      30  27  88  CALM    30.07S
#ADAMS 3WNW     N/A         28  26  92  CALM    30.12S
#ATHENA         N/A         29  25  85  CALM    30.15S
#CAYUSE         N/A         32  29  89  CALM    30.12S
#HELIX SCHOOL   N/A         28  26  92  CALM    30.13R
#HELIX 3N       N/A         29  25  85  CALM    30.03R
#HOLDMAN 5SE    N/A         29  26  88  CALM    30.07S
#HOLDMAN 6E     N/A         28  26  92  CALM    29.93S
#M-F FERNDALE   N/A         30  25  81  CALM    30.08R
#M-F GROVE ELEM N/A         32  27  82  CALM    30.07R
#M-FREEWATER 5SEN/A         31  28  88  CALM    30.07S
#PENDLETON DNTN N/A         31  25  78  CALM    30.07S
#PDT AQUATIC CTRN/A         29  26  88  CALM    30.07S
#PDT SUNRIDGE   N/A         28  26  92  CALM    30.11R
#PENDLETON 7NW  N/A         29  24  81  CALM    32.03S
#PILOT ROCK 1S  N/A         33  20  58  S1      30.07S
#PILOT ROCK     N/A         33  27  78  CALM    30.08R
#TUTUILLA       N/A         31  28  88  CALM    30.12S
#UMAPINE 2E     N/A         28  26  92  CALM    30.08S
#WESTON SCHOOL  N/A         31  26  81  CALM    29.98R

$$

ORZ508-231110-
SOUTHERN FOOTHILLS OF THE BLUES

CITY            SKY/WX      TMP DP  RH  WIND    PRES   REMARKS
LEXINGTON       MOCLDY      30  27  88  SE3     30.12S
#AJAX           N/A         31  18  58  S6      30.22S
#CONDON SCHOOL  N/A         29  25  85  W2      30.00S
#CONDON 5W      N/A         25  21  84  NW7     30.00R
#HEPPNER EOC    N/A         28  24  85  CALM    30.09S
#HEPPNER 4NE    N/A         27  24  88  SW1     30.15R
#LEXINGTON 2SE  N/A         29  24  81  SE3     30.06S
#MIKKALO        N/A         33  25  72  W6      30.20S
#OLEX 4N        N/A         33  29  85  SW7     30.09S
#RUGGS 5NE      N/A         27  25  92  SW2     30.20S
#RUGGS 2SW      N/A         28  24  85  W7      30.17S

$$

ORZ502-503-231110-
BLUE MOUNTAINS

CITY            SKY/WX      TMP DP  RH  WIND    PRES   REMARKS
MEACHAM         CLOUDY      26  22  85  CALM    29.97S
#BATTLE MTN DOT N/A         24  21  88  NW1     N/A
#GREENHORN 9SW  N/A         27  23  85  CALM    29.96F
#HEPPNER 15SE   N/A         23  21  92  CALM    30.25S
#LADD CYN SMT   N/A         28  23  81  NW9     N/A
#LADD CREEK ODOTN/A         30  16  55  NE8     N/A
#LONG CREEK HS  N/A         27  26  96  CALM    N/A
#N POWDER DOT   N/A         29  23  78  N10     N/A
#PIKES PEAK     N/A         26  24  92  CALM    27.99S
#TOLLGATE       N/A         20  19  96  CALM    29.79S
#TROY SCHOOL    N/A         30  28  92  CALM    29.95F
#UKIAH          N/A         28  24  85  CALM    30.02S
#WESTON 4E      N/A         26  25  96  CALM    30.11R
$$

ORZ505-231110-
JOHN DAY BASIN

CITY            SKY/WX      TMP DP  RH  WIND    PRES   REMARKS
JOHN DAY        CLOUDY      29  23  78  CALM    29.99S
#ANTELOPE 9ESE  N/A         28  24  85  CALM    N/A
#DAYVILLE SCHOOLN/A         31  22  69  CALM    30.01S
#MITCHELL       N/A         28  25  88  CALM    30.21S
#MITCHELL 8NW   N/A         27  20  74  CALM    29.98S
#MONUMENT HS    N/A         30  25  81  CALM    30.03R
#MT. VERNON 5SE N/A         26  21  81  SW2     29.92S
#SPRAY SCHOOL   N/A         28  N/A N/A CALM    N/A
#WINLOCK        N/A         27  21  78  CALM    30.00S
$$

ORZ506-231110-
OCHOCO AND JOHN DAY HIGHLANDS

CITY            SKY/WX      TMP DP  RH  WIND    PRES   REMARKS
#HORSE RIDGE DO N/A         25  19  78  N7      N/A
#PAULINA SCHOOL N/A         26  18  71  W3      N/A
#PINE MTN OBS   N/A         16  14  92  CALM    N/A
#PRAIRIE CITY   N/A         28  19  68  W2      30.14F
#SENECA         N/A         23  N/A N/A N6      N/A
#SENECA 9NW     N/A         22  17  81  CALM    30.06S
$$

ORZ049-231110-
GRANDE RONDE VALLEY

CITY            SKY/WX      TMP DP  RH  WIND    PRES   REMARKS
LA GRANDE       CLOUDY      30  23  75  N7      29.99S
#COVE           N/A         29  24  81  CALM    30.02S
#COVE SCHOOL    N/A         29  23  78  CALM    30.01S
#COVE 6NW       N/A         28  23  81  N1      30.09S
#ELGIN 3N       N/A         26  17  68  CALM    29.97F
#ELGIN 1E       N/A         29  23  78  CALM    N/A
#IMBLER SCHOOL  N/A         29  23  78  CALM    29.96F
#ISLAND CITY 4N N/A         30  29  96  CALM    30.26S
#UNION 1S       N/A         30  25  81  NW3     30.09S
$$

ORZ050-231110-
WALLOWA COUNTY

CITY            SKY/WX      TMP DP  RH  WIND    PRES   REMARKS
JOSEPH AIRPORT  CLOUDY      25  19  78  CALM    29.95S
#IMNAHA SCHOOL  N/A         34  30  85  CALM    30.00F
#IMNAHA 10S     N/A         32  24  72  SW3     29.96S
#JOSEPH 3N      N/A         22  16  77  CALM    29.98S
#JOSEPH 3W      N/A         21  15  77  CALM    29.78S
#LOSTINE        N/A         18  16  92  CALM    29.90S
#LOSTINE 3SE    N/A         19  17  92  CALM    30.01S
#MT HOWARD 8000 N/A          9   6  87  NW1     29.69S
#PROMISE 1S     N/A         21  19  92  CALM    30.20R
#WALLOWA SCHOOL N/A         22  21  96  CALM    29.97S



$$



USA.gov is the U.S. government's official web portal to all federal, state and local government web resources and services.